TERRESTAR-1

Last updated on Tue Sep 22 2026 00:03:11 GMT+0000 (Coordinated Universal Time)

1 35496U 09035A 26264.53838424 -.00000056 00000+0 00000+0 0 9991 2 35496 5.2330 48.6540 0002173 110.4706 284.1239 1.00270496 63109
UTC large
Height (km)
Speed (km/s)
/
Latitude / Longitude
Inclination (degrees)
Orbital Period (minutes)
Azimuth
Elevation
Range (km)
Doppler Factor

Next 0 passes for location: London (51.5072 / 0.1276)

No passes found over London.
TERRESTAR-1